Weather in Manchester

United States     42°59′44″N   71°27′15″W
temp.,
°C
wind,
m/s
gust,
m/s
humid.,
%
clouds,
%
prec.,
mm/h
press.,
hPa
HPBL,
m
18 may, tue
tue1823:00+11wsw01944 0.6 102510
02:00+9w119493 0.6 102511
05:00+10w1190100 0.1 102312
08:00+15w278291 0.1 1024233
11:00+23wnw583936 0.0 10232347
14:00+23wnw4841100 0.0 10211776
17:00+20wnw51056100 0.0 1021768
20:00+17nw2872100 0.0 1022197
19 may, wed
wed1923:00+14nw237888 0.0 102351
02:00+12nw238762 0.0 102348
05:00+13nw2582100 0.0 1023111
08:00+15nw2876100 0.0 1025243
11:00+22n583763 0.0 10251621
14:00+25n48335 0.0 10242174
17:00+25nne374167 0.0 10242299
20:00+15ese116725 0.0 102617
20 may, thu
thu2023:00+12ese116996 0.0 102810
02:00+11nw006856 0.0 102910
05:00+9ene116993 0.0 103011
08:00+15e125274 0.0 1032332
11:00+20se224187 0.0 1032881
14:00+24se223924 0.0 10301373
17:00+22se434870 0.0 1030630
20:00+14se25766 0.0 1031121
21 may, fri
fri2123:00+11s228049 0.0 103227
02:00+10se118019 0.0 103119
05:00+10sw119062 0.0 103110
08:00+16s1269100 0.0 1031271
11:00+22s2352100 0.0 1030764
14:00+26ssw2345100 0.0 10271541
17:00+21w3682100 0.8 1026169
20:00+15ene2396100 3.1 102775
22 may, sat
sat2223:00+13ene1195100 0.0 102634
02:00+13ene1196100 0.0 102415
05:00+13se1198100 0.3 102321
08:00+14sse1199100 1.1 102269
11:00+15sse1399100 2.1 1021157
14:00+16s1399100 3.8 1018208
17:00+17s2499100 0.2 1016212
20:00+16s1499100 0.3 1014116